Wind_Speed
128 124 126 133 130 132 129 129 129 127 122 122 125 122 123 124 125 125 122 120 117 117 117 115 114 112 110 108 105 102 98 98 92 92 92 95 98 96 95 96 93 92 90
122 125 134 137 141 137 137 138 137 136 136 132 129 128 131 131 132 134 131 129 128 127 125 124 123 122 120 118 116 113 110 106 105 102 104 103 103 102 101 102 99 96 95
117 118 122 128 132 139 142 146 145 147 148 145 142 141 143 137 139 140 140 140 139 136 135 135 134 130 127 128 126 124 121 117 114 109 109 110 109 110 108 108 103 103 103
115 117 117 119 122 128 130 137 144 150 154 151 147 146 145 145 145 149 146 146 149 146 146 145 144 142 140 138 135 134 132 128 124 120 118 114 112 114 116 115 114 112 110
111 113 116 118 120 121 123 127 129 133 139 143 144 145 151 151 153 155 150 154 155 150 153 151 150 153 150 147 145 144 139 137 135 135 127 125 121 118 119 121 120 120 117
104 106 109 113 116 118 119 121 123 126 129 131 133 135 135 138 139 142 147 145 144 144 157 158 159 157 156 156 152 148 147 145 145 138 136 130 128 128 126 127 128 125 122
100 102 104 105 106 109 111 114 116 118 119 123 126 129 129 132 137 138 140 140 139 140 137 138 146 152 162 158 155 155 149 147 147 143 141 137 138 137 134 130 133 135 131
97 98 100 102 103 105 106 108 109 112 115 117 117 118 119 120 125 130 133 134 131 131 133 133 133 130 133 141 149 150 151 152 147 151 154 147 153 146 146 140 139 141 141
90 92 94 94 95 96 98 100 102 103 104 107 109 112 115 114 120 123 124 123 122 121 123 127 130 128 127 130 127 124 126 124 130 131 133 139 140 135 147 149 143 143 142
90 92 92 93 92 93 94 95 96 96 97 99 99 103 105 105 111 116 121 121 117 116 116 115 116 117 120 124 126 122 118 112 120 121 117 117 123 129 136 142 149 148 142
88 90 90 90 92 93 93 94 94 94 94 96 96 98 99 100 101 106 111 112 113 113 112 112 112 114 113 115 120 118 109 110 113 113 114 113 116 118 121 124 126 130 132
85 85 84 86 87 88 89 91 92 92 93 94 93 95 98 99 101 103 106 106 105 102 104 106 108 111 112 110 110 108 104 106 107 105 107 107 111 112 113 119 119 116 119
83 82 83 82 84 83 82 84 86 88 88 89 89 90 93 96 99 101 102 104 103 100 98 98 101 104 106 108 107 105 104 104 104 101 98 101 106 110 114 109 112 111 110
82 84 84 83 82 82 81 81 82 84 83 83 83 84 87 92 94 96 96 97 99 99 98 97 96 98 102 103 103 101 98 98 101 102 99 100 103 103 105 107 109 109 107
81 81 82 81 81 81 82 81 81 80 80 78 77 78 82 85 86 87 89 92 93 95 94 94 96 93 95 99 101 100 98 94 92 95 96 100 103 103 102 101 104 104 106
76 76 77 75 75 75 75 77 77 76 76 73 73 74 76 76 76 77 78 80 82 82 83 86 87 89 90 95 98 98 98 94 90 91 92 94 96 98 101 100 101 101 101
74 75 75 73 73 72 72 72 74 74 70 69 68 69 71 72 71 70 72 73 72 72 74 77 79 81 83 86 89 91 92 90 88 87 90 89 87 91 95 95 99 101 101
69 69 69 69 68 67 66 66 66 66 67 67 61 62 64 65 66 65 66 68 66 65 67 69 72 75 77 79 81 83 85 83 81 82 84 85 85 86 89 91 93 97 101
66 67 65 64 63 62 62 61 61 61 61 61 62 60 57 55 58 58 58 59 59 59 60 62 66 68 71 72 74 77 79 79 80 79 77 78 80 85 88 88 87 89 93
65 64 64 63 62 61 60 58 58 57 56 58 59 60 61 55 53 53 55 56 55 55 55 56 59 62 64 65 67 68 70 72 75 76 74 73 75 79 86 88 88 87 88
63 61 60 60 59 59 58 56 55 55 54 54 55 57 58 59 54 52 52 52 53 53 53 53 54 56 57 58 59 61 63 64 67 69 70 71 72 75 80 84 87 87 86
62 60 58 57 56 55 55 54 53 51 51 52 51 52 53 53 54 52 49 49 50 50 49 49 49 51 52 54 55 57 59 60 61 63 65 67 69 71 76 80 83 86 87
58 57 56 56 56 54 53 52 52 50 49 49 49 48 49 51 50 51 50 47 46 46 46 45 46 46 47 49 50 52 53 56 58 58 60 62 65 69 72 76 80 82 83
56 54 53 53 53 52 51 50 49 49 48 48 47 45 45 45 46 47 48 47 44 43 43 43 43 44 44 45 47 48 49 51 53 55 56 58 62 65 68 71 74 78 80
52 51 50 49 48 47 46 47 47 47 46 45 44 43 42 40 40 43 44 44 43 40 41 42 41 41 42 42 43 45 46 49 50 52 53 55 57 60 63 66 69 71 75
49 48 47 46 45 44 45 45 45 44 43 42 41 40 40 40 39 38 40 41 40 40 37 38 39 39 40 41 42 43 44 46 48 49 52 53 55 57 59 61 63 66 68
Wind_Direction
261 261 259 259 259 258 258 258 258 259 259 256 254 254 253 254 258 260 260 258 257 257 259 259 260 260 260 260 260 260 259 258 253 253 257 260 260 260 260 259 260 258 259
266 264 261 260 259 259 260 259 258 258 258 258 257 256 254 254 254 254 255 258 260 260 258 257 258 259 259 260 259 261 259 258 258 255 255 259 259 260 260 261 260 261 263
268 267 265 261 260 260 260 260 260 260 260 259 260 259 257 256 254 254 253 253 253 253 255 258 259 258 257 258 258 260 259 259 258 257 257 257 259 260 262 262 261 260 262
268 267 266 265 262 262 261 260 259 259 259 259 258 260 260 258 257 257 256 254 253 253 252 253 254 255 257 258 258 258 258 258 258 259 257 256 257 259 260 262 264 263 261
269 268 267 266 265 264 262 261 261 260 259 258 259 260 260 259 259 258 257 257 257 256 253 253 253 254 255 255 256 256 257 258 259 259 259 259 257 258 260 261 261 262 262
272 270 269 268 267 266 265 264 263 262 261 261 261 262 262 262 263 262 260 259 259 259 255 254 253 254 256 254 254 255 258 258 257 257 257 260 259 258 259 260 262 263 263
275 273 271 269 268 267 268 267 266 265 264 263 263 263 262 261 261 261 260 260 261 261 260 258 257 258 256 255 256 257 254 256 254 258 258 259 260 259 257 258 261 263 263
276 274 273 272 272 271 269 268 266 266 266 265 265 264 263 262 262 262 262 262 262 261 262 262 262 261 260 258 257 257 256 256 257 256 256 255 258 259 258 257 257 259 262
276 275 274 273 272 272 271 270 269 268 266 265 265 264 264 263 263 263 262 262 262 261 260 259 260 261 262 261 260 259 258 257 258 259 256 252 254 257 255 254 257 258 260
278 277 275 274 273 271 269 268 268 268 267 267 267 267 266 264 263 263 264 265 265 263 263 262 260 258 258 260 260 260 259 260 259 258 257 255 256 255 253 254 254 256 257
277 276 275 274 272 271 270 269 268 268 268 267 266 267 267 267 265 264 264 264 263 263 263 262 261 261 259 258 259 259 259 256 255 254 254 255 255 254 255 255 255 255 255
279 278 277 275 274 273 273 273 272 271 270 269 268 267 267 267 266 265 265 265 265 263 262 262 261 261 261 260 259 259 259 258 256 254 253 251 252 253 251 253 253 253 254
280 281 279 279 277 276 275 273 272 271 270 269 269 269 268 267 266 265 264 265 266 266 264 261 260 261 261 261 260 258 256 255 256 255 253 253 252 252 252 250 252 252 252
282 281 281 280 280 279 277 276 275 274 274 272 271 270 268 267 266 267 266 266 265 265 264 263 261 260 261 261 261 260 257 255 253 253 253 251 250 250 251 252 251 250 250
283 282 281 281 280 280 280 280 279 278 276 276 274 272 270 268 268 267 266 265 264 264 264 263 263 260 258 258 259 260 260 257 254 252 250 249 250 249 249 248 249 250 249
284 283 282 282 282 281 281 282 280 279 280 279 278 276 274 271 270 269 268 266 266 265 264 263 261 260 258 257 257 257 258 257 255 253 251 249 248 248 248 247 246 247 248
283 282 282 282 282 282 281 280 280 281 279 278 277 277 275 275 274 272 271 269 267 265 263 263 261 260 258 257 257 258 258 258 255 253 253 252 249 247 247 247 246 245 246
284 283 283 283 282 282 281 281 282 282 284 282 277 276 276 276 276 275 273 272 270 267 264 262 261 259 258 256 256 256 256 257 256 253 250 251 250 248 247 245 245 244 244
286 286 286 285 285 285 284 284 284 283 283 282 282 280 277 276 277 277 275 274 271 269 265 263 261 260 259 257 256 255 255 254 254 253 250 248 247 246 246 246 245 245 246
286 286 287 286 286 285 285 284 284 284 284 284 285 285 284 282 278 276 277 276 274 272 268 265 262 261 259 258 257 256 255 254 253 253 251 249 246 244 244 244 244 244 244
286 285 285 284 285 285 285 284 284 284 284 283 283 284 284 285 284 279 276 275 274 273 270 268 265 263 261 258 255 254 255 254 253 252 250 248 246 244 243 242 243 243 243
286 285 285 284 284 284 284 284 284 284 284 283 283 283 284 285 285 283 279 277 275 273 272 269 266 263 262 260 257 254 251 250 250 249 248 247 245 244 243 242 241 242 242
284 284 285 285 286 286 286 286 287 288 287 286 287 286 284 285 284 284 282 279 275 274 273 270 267 265 262 260 257 254 251 250 249 248 246 244 243 242 242 243 242 242 242
283 283 283 283 284 285 286 286 287 289 289 288 288 287 285 285 284 283 283 282 278 273 271 269 267 265 263 261 259 256 252 249 247 247 247 246 244 243 243 243 243 244 244
281 281 281 281 282 283 284 286 288 289 290 290 290 290 288 285 283 283 281 281 280 275 272 268 265 263 262 260 258 256 254 249 246 245 245 244 243 243 243 244 245 245 245
279 279 280 282 283 284 285 287 288 289 291 291 291 290 289 287 285 282 281 280 279 278 273 270 266 262 259 258 257 255 254 253 250 246 244 243 243 243 244 245 246 246 247
Height
10431 10432 10432 10433 10434 10435 10436 10438 10442 10447 10451 10457 10460 10463 10464 10466 10468 10469 10472 10476 10482 10484 10485 10490 10495 10497 10502 10504 10505 10511 10520 10523 10534 10536 10536 10535 10539 10542 10543 10547 10552 10559 10560
10388 10390 10391 10390 10388 10391 10393 10395 10396 10398 10406 10411 10415 10419 10423 10428 10428 10434 10438 10441 10443 10446 10451 10456 10461 10461 10470 10472 10475 10479 10485 10490 10496 10508 10509 10513 10516 10515 10517 10521 10527 10535 10535
10345 10345 10345 10345 10347 10347 10350 10351 10354 10355 10357 10361 10369 10371 10376 10380 10385 10386 10394 10399 10403 10409 10412 10415 10420 10426 10433 10436 10440 10445 10450 10454 10461 10472 10482 10485 10490 10490 10493 10492 10499 10507 10510
10306 10305 10304 10302 10303 10303 10303 10304 10306 10309 10311 10313 10318 10323 10325 10331 10337 10339 10345 10353 10359 10364 10371 10376 10381 10386 10392 10395 10402 10408 10410 10419 10424 10434 10446 10456 10463 10464 10463 10469 10472 10474 10476
10269 10267 10264 10263 10261 10260 10260 10261 10262 10261 10264 10269 10275 10278 10281 10285 10288 10287 10292 10298 10308 10313 10322 10329 10337 10342 10349 10356 10362 10371 10374 10382 10387 10397 10407 10418 10432 10436 10435 10432 10432 10435 10443
10231 10227 10224 10221 10219 10218 10219 10221 10222 10223 10226 10230 10231 10234 10236 10239 10240 10238 10241 10247 10254 10262 10275 10277 10288 10297 10302 10308 10317 10325 10332 10341 10350 10356 10368 10380 10392 10401 10402 10400 10395 10402 10413
10193 10188 10183 10183 10183 10181 10180 10179 10180 10181 10184 10187 10189 10189 10193 10197 10195 10193 10193 10197 10206 10215 10223 10232 10238 10246 10254 10262 10267 10275 10289 10300 10311 10315 10327 10339 10342 10358 10367 10368 10367 10368 10378
10158 10153 10149 10147 10146 10145 10146 10145 10146 10145 10148 10148 10149 10147 10149 10156 10151 10148 10146 10148 10162 10175 10181 10186 10192 10203 10207 10214 10221 10229 10244 10255 10267 10275 10286 10300 10299 10308 10323 10331 10334 10336 10336
10129 10124 10118 10117 10117 10116 10114 10111 10107 10109 10111 10110 10111 10111 10108 10118 10109 10103 10101 10108 10120 10134 10141 10149 10154 10160 10168 10167 10173 10187 10197 10214 10222 10223 10235 10252 10256 10262 10275 10285 10299 10301 10308
10098 10093 10089 10086 10086 10084 10080 10078 10076 10077 10078 10076 10077 10073 10073 10080 10072 10067 10061 10067 10083 10093 10100 10106 10113 10123 10127 10124 10123 10138 10153 10179 10171 10178 10189 10204 10212 10222 10229 10243 10256 10269 10273
10066 10061 10058 10055 10051 10048 10049 10046 10046 10046 10047 10045 10047 10042 10041 10041 10041 10035 10030 10033 10041 10051 10061 10067 10070 10072 10081 10085 10083 10094 10120 10131 10127 10135 10147 10163 10174 10186 10193 10202 10213 10223 10229
10034 10031 10029 10024 10020 10018 10018 10016 10015 10015 10013 10013 10016 10012 10009 10007 10005 10000 9996 9997 10003 10018 10026 10029 10033 10031 10035 10044 10049 10062 10077 10082 10086 10100 10110 10126 10136 10145 10156 10159 10168 10178 10187
10004 10002 9998 9995 9990 9989 9990 9986 9983 9981 9983 9982 9983 9982 9977 9972 9968 9966 9969 9967 9971 9980 9989 9995 9998 9997 10001 10004 10012 10024 10034 10043 10051 10062 10078 10088 10093 10099 10103 10120 10131 10141 10152
9979 9974 9970 9967 9964 9961 9959 9957 9955 9952 9952 9952 9953 9951 9947 9939 9937 9937 9939 9941 9942 9948 9953 9960 9967 9970 9968 9972 9975 9984 9997 10009 10017 10026 10039 10046 10047 10060 10071 10081 10090 10102 10112
9952 9946 9941 9939 9936 9933 9929 9927 9926 9923 9923 9922 9922 9918 9912 9907 9908 9910 9910 9910 9912 9914 9921 9927 9928 9938 9942 9941 9944 9949 9957 9970 9983 9992 10002 10009 10015 10025 10035 10045 10051 10063 10074
9925 9921 9915 9914 9911 9908 9906 9901 9897 9898 9894 9895 9893 9888 9882 9881 9882 9882 9882 9882 9883 9887 9891 9893 9896 9901 9908 9908 9912 9917 9923 9935 9948 9957 9965 9973 9983 9993 9999 10010 10019 10030 10038
9904 9898 9893 9892 9888 9885 9882 9878 9871 9868 9872 9870 9868 9863 9858 9856 9856 9856 9854 9853 9857 9861 9863 9862 9865 9870 9874 9878 9882 9887 9892 9901 9913 9928 9934 9943 9955 9962 9969 9980 9989 9997 10005
9881 9877 9872 9868 9866 9863 9859 9855 9852 9848 9842 9840 9846 9842 9837 9834 9832 9833 9831 9829 9832 9836 9835 9836 9837 9841 9845 9851 9856 9860 9864 9873 9883 9892 9901 9912 9923 9931 9939 9946 9955 9964 9970
9858 9853 9850 9847 9844 9841 9838 9835 9831 9828 9825 9821 9817 9817 9818 9818 9813 9812 9810 9809 9809 9811 9812 9813 9814 9816 9819 9824 9829 9834 9839 9847 9852 9860 9873 9882 9893 9900 9908 9918 9928 9934 9942
9838 9833 9829 9827 9824 9822 9820 9816 9813 9810 9807 9803 9800 9796 9790 9795 9796 9794 9791 9788 9788 9790 9790 9791 9792 9795 9798 9801 9806 9811 9816 9823 9828 9837 9848 9857 9865 9872 9878 9888 9897 9906 9916
9819 9816 9812 9809 9806 9802 9800 9798 9796 9793 9791 9788 9785 9781 9777 9772 9773 9774 9773 9771 9769 9769 9770 9772 9773 9775 9777 9781 9785 9790 9795 9801 9807 9814 9821 9829 9837 9845 9851 9860 9868 9878 9889
9799 9796 9794 9791 9789 9786 9783 9781 9778 9776 9773 9771 9769 9766 9761 9758 9754 9754 9754 9754 9751 9751 9751 9753 9755 9756 9758 9761 9765 9770 9774 9778 9784 9791 9798 9805 9813 9820 9825 9832 9841 9850 9859
9781 9778 9775 9772 9770 9768 9765 9762 9759 9758 9757 9754 9752 9749 9746 9742 9740 9737 9735 9735 9735 9734 9733 9734 9736 9738 9741 9743 9747 9751 9755 9759 9764 9770 9776 9783 9790 9795 9802 9808 9816 9825 9832
9764 9761 9759 9756 9754 9751 9749 9746 9743 9742 9740 9738 9736 9734 9732 9729 9724 9721 9718 9717 9718 9718 9717 9717 9719 9721 9724 9727 9730 9734 9738 9742 9747 9752 9758 9764 9769 9775 9781 9787 9794 9801 9808
9746 9744 9742 9741 9739 9737 9734 9731 9729 9728 9725 9723 9721 9719 9716 9713 9710 9707 9704 9702 9702 9703 9702 9702 9703 9705 9707 9710 9713 9717 9720 9724 9728 9733 9738 9744 9750 9756 9762 9767 9774 9780 9786
9731 9728 9726 9725 9723 9721 9719 9717 9715 9714 9711 9709 9706 9704 9701 9699 9697 9695 9692 9689 9688 9688 9689 9688 9687 9689 9692 9695 9698 9700 9703 9706 9710 9715 9720 9725 9731 9736 9742 9748 9754 9760 9766